Regional Weather Roundup
Issued by NWS

Home | Current Version | Previous Version | Graphics & Text | Print | Product List | Glossary On
Versions: 1 2 3 4 5 6 7 8 9 10 11 12 13 14 15 16 17 18 19 20 21 22 23 24 25 26 27 28 29 30 31 32 33 34 35 36 37 38 39 40 41 42 43 44 45 46 47 48 49 50
000
ASUS45 KABQ 250901
RWRNM
NEW MEXICO REGIONAL WEATHER ROUNDUP
NATIONAL WEATHER SERVICE ALBUQUERQUE NM
300 AM MDT TUE JUL 25 2017

NOTE: "FAIR" MEANS FEW OR NO CLOUDS BELOW 12,000 FEET AGL WITH NO
       SIGNIFICANT WEATHER OR OBSTRUCTIONS TO VISION.

      THIS PRODUCT IS RELEASED AS TWO VERSIONS.  ONE VERSION NEAR
      THE TOP OF THE HOUR CONTAINING PRELIMINARY DATA FROM ALBUQUERQUE
      AND OTHER STATIONS.  A FINAL VERSION WITH ADDITIONAL DATA IS
      ISSUED ABOUT 10 MINUTES AFTER THE HOUR.

NMZ501-503-504-510>518-251000-
NORTHWEST PLATEAU/NORTHCENTRAL MOUNTAINS

CITY           SKY/WX    TMP DP  RH WIND       PRES   REMARKS
FARMINGTON     CLOUDY    66  61  84 SE8       30.19R
LOS ALAMOS     FAIR      64  54  69 CALM      30.32S
SANTA FE       MOCLDY    63  60  90 N13       30.25R
TAOS           FAIR      61  52  72 N5        30.32F
ANGEL FIRE     MOCLDY    58  53  83 SW6       30.41S

$$
NMZ402-403-502-505>509-251000-
WESTCENTRAL MOUNTAINS/SOUTHWEST MOUNTAINS

CITY           SKY/WX    TMP DP  RH WIND       PRES   REMARKS
GALLUP         CLOUDY    62  60  93 CALM      30.27S
GRANTS         CLOUDY    60  58  92 NW5       30.29R
SILVER CITY    FAIR      63  62  95 N5        30.21S

$$
NMZ407-409-411-412-251000-
SOUTHERN DESERTS

CITY           SKY/WX    TMP DP  RH WIND       PRES   REMARKS
DEMING         FAIR      72  65  78 S12       30.14S
LAS CRUCES     FAIR      71  64  78 S7        30.15F
HOLLOMAN AFB   FAIR      76  62  62 S15       30.12R
ALAMOGORDO     FAIR      75  61  60 S16       30.13R
T OR C         FAIR      72  55  55 SW8       30.14S

$$
NMZ519>523-251000-
CENTRAL VALLEYS/CENTRAL HIGHLANDS

CITY           SKY/WX    TMP DP  RH WIND       PRES   REMARKS
ALBUQUERQUE    FAIR      73  58  59 SE6       30.18R
DOUBLE EAGLE   CLOUDY    68  52  56 CALM      30.22R
MORIARTY ARPT  MOCLDY    65  58  79 CALM      30.25S
CLINES CORNERS MOCLDY    63  52  67 SE6       30.31S
BELEN          NOT AVBL
SOCORRO        FAIR      69  61  74 SE6       30.14R

$$
NMZ524>526-539-540-251000-
SOUTHCENTRAL MOUNTAINS

CITY           SKY/WX    TMP DP  RH WIND       PRES   REMARKS
RUIDOSO        MOCLDY    63  57  82 S6        30.31S

$$
NMZ527>531-251000-
NORTHEAST HIGHLANDS/NORTHEAST PLAINS

CITY           SKY/WX    TMP DP  RH WIND       PRES   REMARKS
RATON          FAIR      60  55  83 N3        30.21F
CLAYTON        FAIR      64  63  96 S10       30.15S

$$
NMZ532>537-251000-
EASTCENTRAL PLAINS

CITY           SKY/WX    TMP DP  RH WIND       PRES   REMARKS
SANTA ROSA     FAIR      68  58  70 SE6       30.14S
TUCUMCARI      FAIR      74  62  66 S8        30.08R
CANNON AFB     FAIR      68  68 100 SE3       30.14S
CLOVIS AIRPORT FAIR      67  64  90 S6        30.14R

$$
NMZ028-029-538-251000-
SOUTHEAST PLAINS

CITY           SKY/WX    TMP DP  RH WIND       PRES   REMARKS
ROSWELL        FAIR      77  58  51 S10       30.06S
ARTESIA        FAIR      77  61  57 SE9       30.07S
CARLSBAD       FAIR      75  65  70 S3        30.04S
HOBBS          FAIR      72  63  73 SE3       30.11S


$$



USA.gov is the U.S. government's official web portal to all federal, state and local government web resources and services.